This demonstration page uses our WeatherBlox Daily Observations layout. Learn more.

Left ArrowRight Arrow

Hourly Observations for November 19, 2018

Temp ( °F °C ) Dew Point ( °F °C ) Humidity (%) Winds ( mph kmh ) Pressure ( in mb ) Visibility ( mi km ) Precip ( " mm )
12:10 am 00:10 Cloudy 36 2 34 1 93 93 WSW 10 17 30.18 1022 10 16 0.00 0.00
12:51 am 00:51 Cloudy 34 1 34 1 100 100 SW 13 20 30.21 1023 10 16 0.00 0.00
12:53 am 00:53 Cloudy 34 1.1 33 0.6 97 97 SW 12 19 30.19 1022 10 16 0.00 0.00
1:05 am 01:05 Cloudy 34 1.1 32 0 92 92 SW 13 20 30.21 1023 10 16 0.00 0.00
1:53 am 01:53 Cloudy 35 1.7 32 0 89 89 SW 12 19 30.19 1022 10 16 0.00 0.00
2:53 am 02:53 Cloudy 35 1.7 33 0.6 93 93 SW 10 17 30.20 1023 10 16 0.00 0.00
3:53 am 03:53 Cloudy 35 1.7 33 0.6 93 93 SW 9 15 30.20 1023 10 16 0.00 0.00
4:53 am 04:53 Cloudy 35 1.7 33 0.6 93 93 SW 9 15 30.20 1023 10 16 0.00 0.00
5:15 am 05:15 Cloudy 35 1.7 32 0 89 89 SW 10 17 30.24 1024 10 16 0.00 0.00
5:53 am 05:53 Cloudy 35 1.7 32 0 89 89 SW 12 19 30.21 1023 10 16 0.00 0.00
6:53 am 06:53 Cloudy 34 1.1 30 -1.1 85 85 SW 10 17 30.22 1023 10 16 0.00 0.00
7:53 am 07:53 Cloudy 34 1.1 30 -1.1 85 85 WSW 8 13 30.22 1024 10 16 0.00 0.00
8:53 am 08:53 Cloudy 35 1.7 30 -1.1 82 82 WSW 8 13 30.24 1024 10 16 0.00 0.00
9:53 am 09:53 Cloudy 37 2.8 31 -0.6 79 79 WSW 8 13 30.23 1024 10 16 0.00 0.00
10:53 am 10:53 Sunny 42 5.6 30 -1.1 62 62 SW 15 24 30.21 1023 10 16 0.00 0.00
11:53 am 11:53 Sunny 43 6.1 27 -2.8 53 53 SW 18 30 30.19 1022 10 16 0.00 0.00
12:53 pm 12:53 Sunny 44 6.7 27 -2.8 51 51 SW 21 33 30.15 1021 10 16 0.00 0.00
1:53 pm 13:53 Sunny 44 6.7 27 -2.8 51 51 SW 20 31 30.14 1021 10 16 0.00 0.00
2:53 pm 14:53 Sunny 45 7.2 28 -2.2 52 52 SW 16 26 30.12 1020 10 16 0.00 0.00
3:53 pm 15:53 Sunny 43 6.1 30 -1.1 60 60 SW 9 15 30.12 1020 10 16 0.00 0.00
4:53 pm 16:53 Clear 38 3.3 28 -2.2 68 68 SW 6 9 30.12 1020 10 16 0.00 0.00
5:53 pm 17:53 Clear 36 2.2 28 -2.2 73 73 SW 12 19 30.11 1020 10 16 0.00 0.00
6:53 pm 18:53 Clear 35 1.7 28 -2.2 76 76 SW 12 19 30.11 1020 10 16 0.00 0.00
7:53 pm 19:53 Clear 34 1.1 27 -2.8 76 76 SW 13 20 30.10 1019 10 16 0.00 0.00
8:53 pm 20:53 Clear 34 1.1 27 -2.8 76 76 SW 14 22 30.10 1019 10 16 0.00 0.00
9:53 pm 21:53 Clear 35 1.7 27 -2.8 72 72 WSW 9 15 30.11 1020 10 16 0.00 0.00
10:53 pm 22:53 Clear 34 1.1 26 -3.3 73 73 WSW 9 15 30.10 1019 10 16 0.00 0.00
11:53 pm 23:53 Clear 33 0.6 27 -2.8 78 78 WSW 9 15 30.11 1020 10 16 0.00 0.00

Powered by AerisWeather